User: anonymous   Login
Location: Unspecified
(0.0000°N, 0.0000°E)
Time: 18:55:24
(UTC+02:00)
Language:

ARIANE DEB (SPELDA) - Orbit

View from above orbital plane
View from above orbital plane
View from above satellite
View from above satellite

Ground track
Ground track

The orbit data is extracted from the following two-line orbital elements,

1 27402U 02015D   16118.63438503 +.00000497 +00000-0 +54543-3 0  9996
2 27402 003.8005 309.4300 7094421 309.2189 006.6221 02.48023022123759
Epoch (UTC): 27 April 2016 15:13:30
Eccentricity: 0.7094421
inclination: 3.8005°
perigee height: 320 km
apogee height: 33030 km
right ascension of ascending node: 309.4300°
argument of perigee: 309.2189°
revolutions per day: 2.48023022
mean anomaly at epoch: 6.6221°
orbit number at epoch: 12375

The dashed part of the orbit path shows where the satellite is in the earth's shadow,  

DLR